User: anonymous   Login
Location: Hamburg
(53.5500°N, 10.0000°E)
Time: 01:13:30
(UTC+01:00)
Language:

Courier 1B - Orbit

View from above orbital plane
View from above orbital plane
View from above satellite
View from above satellite

Ground track
Ground track

The orbit data is extracted from the following two-line orbital elements,

1 00058U 60013A   15061.65518632  .00000107  00000-0  29312-4 0  9991
2 00058 028.3276 185.1001 0165041 259.5067 098.6843 13.46289467678357
Epoch (UTC): 02 March 2015 15:43:28
Eccentricity: 0.0165041
inclination: 28.3276°
perigee height: 963 km
apogee height: 1209 km
right ascension of ascending node: 185.1001°
argument of perigee: 259.5067°
revolutions per day: 13.46289467
mean anomaly at epoch: 98.6843°
orbit number at epoch: 67835

The dashed part of the orbit path shows where the satellite is in the earth's shadow,  

DLR